Weather History for PAWD - July, 2013

Change the Weather History Date:

Monday, July 22, 2013

  Actual Average Record
Temperature  
Mean Temperature 66 °F -  
Max Temperature 78 °F 61 °F 81 °F (1955)
Min Temperature 54 °F 49 °F 43 °F (1959)
Cooling Degree Days 1    
Growing Degree Days 16 (Base 50)    
Moisture  
Dew Point 50 °F    
Average Humidity 61    
Maximum Humidity 93    
Minimum Humidity 36    
Precipitation  
Precipitation 0.00 in - - ()
Sea Level Pressure  
Sea Level Pressure 30.03 in    
Wind  
Wind Speed 9 mph (NNE)    
Max Wind Speed 17 mph    
Max Gust Speed 28 mph    
Visibility 10 miles    
Events      
Averages and records for this station are not official NWS values.
T = Trace of Precipitation, MM = Missing Value Source: NWS Daily Summary

Daily Weather History Graph

Daily Weather History Graph

Search for Another Location

Airport or City:

Trip Planner

Search our weather history database for the weather conditions in past years. The results will help you decide how hot, cold, wet, or windy it might be!

Date:

Astronomy

Jul. 22, 2013 Rise Set
Actual Time 5:15 AM AKDT 10:51 PM AKDT
Civil Twilight 4:05 AM AKDT 12:00 AM AKDT
Nautical Twilight 2:36 AM AKDT 1:31 AM AKDT
Astronomical Twilight Sun does not set Sun does not set
Moon 10:08 PM AKDT (7/22) 5:47 AM AKDT (7/22)
Length of Visible Light 19h 54m
Length of Day
17h 35m
Full, 100% of the Moon is Illuminated
Jul 22
Full
Jul 29
Last Quarter
Aug 6
New
Aug 14
First Quarter
Aug 20
Full

Hourly Weather History & Observations

Time (AKDT) Temp. Dew Point Humidity Pressure Visibility Wind Dir Wind Speed Gust Speed Precip Events Conditions
12:53 AM 66.9 °F 44.1 °F 44% 29.95 in 10.0 mi North - - N/A   Clear
1:53 AM 66.0 °F 44.1 °F 45% 29.96 in 10.0 mi North 8.1 mph - N/A   Clear
2:53 AM 66.0 °F 43.0 °F 43% 29.96 in 10.0 mi North 9.2 mph 18.4 mph N/A   Clear
3:53 AM 64.9 °F 44.1 °F 47% 29.97 in 10.0 mi NNE 10.4 mph - N/A   Clear
4:53 AM 64.0 °F 45.0 °F 50% 29.98 in 10.0 mi NNE 11.5 mph - N/A   Clear
5:53 AM 64.0 °F 45.0 °F 50% 29.98 in 10.0 mi North 9.2 mph 19.6 mph N/A   Partly Cloudy
6:53 AM 64.0 °F 45.0 °F 50% 29.99 in 10.0 mi NNE 12.7 mph 20.7 mph N/A   Partly Cloudy
7:53 AM 64.9 °F 46.0 °F 50% 30.01 in 10.0 mi North 15.0 mph 21.9 mph N/A   Clear
8:53 AM 66.0 °F 46.0 °F 48% 30.01 in 10.0 mi North 17.3 mph 27.6 mph N/A   Clear
9:53 AM 68.0 °F 46.9 °F 47% 30.02 in 10.0 mi North 15.0 mph 26.5 mph N/A   Clear
10:53 AM 72.0 °F 46.9 °F 41% 30.01 in 10.0 mi North 17.3 mph 24.2 mph N/A   Clear
11:53 AM 73.0 °F 46.9 °F 39% 30.01 in 10.0 mi North 12.7 mph 21.9 mph N/A   Clear
12:53 PM 75.9 °F 46.9 °F 36% 30.02 in 10.0 mi North 10.4 mph 17.3 mph N/A   Clear
1:53 PM 63.0 °F 55.9 °F 78% 30.04 in 10.0 mi Variable 6.9 mph - N/A   Clear
2:53 PM 64.0 °F 55.9 °F 75% 30.05 in 10.0 mi Variable 6.9 mph - N/A   Clear
3:53 PM 64.9 °F 55.9 °F 73% 30.06 in 10.0 mi SSE 6.9 mph - N/A   Clear
4:53 PM 64.9 °F 55.9 °F 73% 30.08 in 10.0 mi South 6.9 mph - N/A   Clear
5:53 PM 64.9 °F 55.9 °F 73% 30.08 in 10.0 mi SSE 6.9 mph - N/A   Clear
6:53 PM 64.0 °F 55.0 °F 73% 30.09 in 10.0 mi SSE 8.1 mph - N/A   Clear
7:53 PM 63.0 °F 55.0 °F 75% 30.09 in 10.0 mi SE 6.9 mph - N/A   Clear
8:53 PM 60.1 °F 55.9 °F 86% 30.10 in 10.0 mi SSE 4.6 mph - N/A   Clear
9:53 PM 57.9 °F 55.0 °F 90% 30.11 in 10.0 mi Calm Calm - N/A   Clear
10:53 PM 57.0 °F 55.0 °F 93% 30.12 in 10.0 mi Calm Calm - N/A   Clear
11:53 PM 54.0 °F 52.0 °F 93% 30.12 in 10.0 mi Calm Calm - N/A   Clear